Other Public Products
Issued by NWS Grand Forks, ND

Home | Current Version | Previous Version | Text Only | Print | Product List | Glossary Off
Versions: 1 2 3 4 5 6 7 8 9 10 11 12 13 14 15 16 17 18 19 20 21 22 23 24 25 26 27 28 29 30 31 32 33 34 35 36 37 38 39 40 41 42 43 44 45 46 47 48 49 50

809
FPUS83 KFGF 080910
OPUFGF
PRAIRIE TO PINES WEATHER ROUNDUP
NATIONAL WEATHER SERVICE EASTERN NORTH DAKOTA/GRAND FORKS ND
300 AM CST MON FEB 08 2016

 **SATELLITE DATA USED TO AUGMENT SKY COVER AT AUTOMATED STATIONS**
 *****  WEATHER ACROSS EASTERN NORTH DAKOTA  *****

CITY           SKY/WX    TMP DP  RH WIND       PRES   REMARKS
GRAND FORKS    LGT SNOW  14   8  77 N37G47    30.09R BLWGSNOWWCI  -9
GRAND FORKS AF LGT SNOW  14   9  79 N25G32    30.09S WCI  -5
GRAND CITY NWS   N/A     12 N/A N/A N16         N/A  WCI  -4
BUXTON           N/A     13  13  99 N29G43      N/A  WCI  -8
DEVILS LAKE    FLURRIES  19  13  77 N17       30.10S WCI   4
FARGO          SNOW      15  11  83 N31G41    30.06R VSB 1/2 WCI  -6
WAHPETON ARPT  CLOUDY    16  10  79 N28G35    30.03R VSB 1   WCI  -4
$$

 *****  WEATHER ACROSS CENTRAL AND WESTERN NORTH DAKOTA  *****

CITY           SKY/WX    TMP DP  RH WIND       PRES   REMARKS
JAMESTOWN      CLOUDY    20  13  74 N26       30.08R WCI   2
BISMARCK       CLEAR     28  18  66 NW22G33   30.19F WCI  14
MINOT          CLEAR     26  16  65 W21       30.20R WCI  12
MINOT AFB      CLEAR     24  19  82 NW23      30.19R WCI   8
GARRISON         N/A     22  17  81 NW22      30.20S WCI   6
WILLISTON      CLEAR     26  17  68 NW21G29   30.32R WCI  12
DICKINSON      CLEAR     18  13  80 W13       30.25S WCI   5
HETTINGER      CLEAR     21  14  74 NW14      30.26F WCI   8
$$

 *****  OTHER OBSERVATIONS NORTHEAST NORTH DAKOTA  *****

CITY           SKY/WX    TMP DP  RH WIND       PRES   REMARKS
WALHALLA       FAIR      14  12  92 N17G30    30.14R WCI  -3
LANGDON        LGT SNOW  14  10  85 N22G28    30.08R WCI  -4
CAVALIER       LGT SNOW  14   9  79 N18G31    30.13R WCI  -3
GRAFTON        LGT SNOW  12  10  92 N23G32    30.13R WCI  -7
CANDO          NOT AVBL
FORT TOTTEN      N/A     18  12  79 N8        29.95S WCI   8
ROLLA          FLURRIES  18  10  73 N25G35    30.11R WCI  -1
RUGBY          FAIR      18  14  86 NW20      30.14R WCI   1
 ***** THE ABOVE OBSERVATIONS ARE NON NWS ARE NOT QUALITY
        CONTROLLED AND MAY MIS-REPORT RAIN FOR SNOW...
$$

 *****  OTHER OBSERVATIONS SOUTHEAST NORTH DAKOTA *****

CITY           SKY/WX    TMP DP  RH WIND       PRES   REMARKS
COOPERSTOWN    NOT AVBL
VALLEY CITY    FLURRIES  18  12  79 N22G28    30.09R WCI   0
OAKES          CLOUDY    19  14  79 N30G45    30.07R WCI   0
GWINNER        CLOUDY    21  14  73 N22G29    30.08R WCI   5
SHEYENNE NWR     N/A     17  10  74 N17       29.95S WCI   1
BUFFALO          N/A     16  10  77 N26G43      N/A  WCI  -3
WYNDMERE       NOT AVBL
 ***** THE ABOVE OBSERVATIONS ARE NON NWS ARE NOT QUALITY
       CONTROLLED AND MAY MIS-REPORT RAIN FOR SNOW...
$$

  *****  WEATHER ACROSS NORTHERN MINNESOTA  *****

CITY           SKY/WX    TMP DP  RH WIND       PRES   REMARKS
FLAG ISLAND    CLOUDY     3  -2  78 NW25      29.95R HAZE    WCI -20
WARROAD        CLOUDY     3  -2  78 NW16G24   29.98R WCI -16
ROSEAU         FLURRIES   7   0  72 NW15      30.00R WCI -11
HALLOCK        CLOUDY    10   7  85 N22G30    30.09R FOG     WCI  -9
THF RVR FALLS  NOT AVBL
HALSTAD        NOT AVBL
FOSSTON        LGT SNOW   3   1  92 NW23      29.98R WCI -19
BAUDETTE       LGT SNOW   4  -2  76 NW20      29.92R VSB 1   WCI -17
WASKISH        LGT SNOW   5   0  78 NW10G17   29.92R WCI -10
CROOKSTON      LGT SNOW  10   9  92 N30       30.07R VSB 3/4 WCI -12
$$
  *****  WEATHER ACROSS CENTRAL AND WEST MINNESOTA  *****

CITY           SKY/WX    TMP DP  RH WIND       PRES   REMARKS
BEMIDJI        LGT SNOW   4  -1  80 NW16G22   29.90R WCI -15
PARK RAPIDS    LGT SNOW   6  -1  73 NW16G25   29.89R WCI -12
WADENA         LGT SNOW   7   1  78 NW17G25   29.90R WCI -12
DETROIT LAKES  MIX PCPN   9   5  85 N25G40    29.96R WCI -13
MOORHEAD       MIX PCPN  12   9  85 N23       30.05R WCI  -7
FERGUS FALLS   LGT SNOW  10   7  85 N23G39    30.01R WCI -10
ELBOW LAKE     LGT SNOW  10   6  82 NW21G36   29.97R WCI  -9
MORRIS MN      SNOW      12   9  85 N31G41    29.95S VSB 1/2 WCI -10
STAPLES        CLOUDY     7   0  72 N17G24    29.88R WCI -12
WHEATON        LGT SNOW  16  12  86 NW26G39   30.05R WCI  -3
$$
  *****  WEATHER ELSEWHERE ACROSS MINNESOTA  *****

CITY           SKY/WX    TMP DP  RH WIND       PRES   REMARKS
DULUTH         LGT SNOW  11   6  81 NW23G32   29.68R VSB 3/4 WCI  -9
INTRNTL FALLS  LGT SNOW   7   2  80 NW14G22   29.84R WCI -10
ELY            FLURRIES  10   9  92 N6        29.73R WCI   1
CLOQUET        LGT SNOW  10   7  85 NW21G29   29.72R WCI  -9
BRAINERD       FLURRIES   8   2  76 NW17G24   29.85R WCI -10
HIBBING        MIX PCPN   7   3  84 NW23G29   29.76R FOG     WCI -14
ALEXANDRIA     LGT SNOW   8   3  80 N21G28    29.91R WCI -12
SAINT CLOUD    CLOUDY    12   4  70 NW18G30   29.83R WCI  -6
MINNEAPOLIS    FLURRIES  15   8  73 NW15      29.79S WCI   0
$$

  *****  WEATHER ACROSS SOUTH DAKOTA  *****

CITY           SKY/WX    TMP DP  RH WIND       PRES   REMARKS
SIOUX FALLS    CLOUDY    23  15  71 N31G40    29.99R WCI   5
BROOKINGS      LGT SNOW  19  14  81 N31G43    29.95R WCI   0
WATERTOWN      FLURRIES  19  11  70 N32G39    29.98S WCI  -1
HURON          CLOUDY    27  17  66 NW29G36   30.07R WCI  11
SISSETON         N/A     17  13  84 N36G44    30.02R WCI  -4
ABERDEEN       CLOUDY    26  16  65 N23G32    30.09R WCI  11
MITCHELL       CLOUDY    28  19  69 N24G41    30.09R WCI  14
PIERRE         CLEAR     28  17  63 NW28G40   30.18R WCI  13
MOBRIDGE       CLEAR     27  17  66 N22G32    30.15R WCI  13
RAPID CITY     CLEAR     28  10  46 NW23G33   30.28F WCI  14
$$

  *****  SOME WEATHER IN NEARBY STATES *****

CITY           SKY/WX    TMP DP  RH WIND       PRES   REMARKS
GLASGOW MT     CLOUDY    20  14  77 NW7       30.41R WCI  11
GREAT FALLS MT CLOUDY    32  20  61 SW12      30.40F WCI  23
CHEYENNE WY    CLOUDY    21  13  71 N7        30.32S WCI  12
SCOTTSBLUFF NE CLEAR     24  11  57 NW18      30.37S WCI  10
OMAHA NE       CLOUDY    30  21  69 NW26G33   29.98R WCI  16
DES MOINES IA  FLURRIES  23  13  65 NW22G39   29.87S WCI   8
DAVENPORT IA   CLOUDY    30  23  75 NW16      29.70S WCI  19
CHICAGO IL     PTCLDY    30  27  88 W7        29.63F WCI  23
EAU CLAIRE WI  FLURRIES  18  11  74 NW13      29.68S WCI   5
LA CROSSE WI   FLURRIES  20  13  74 NW17      29.69S WCI   5
$$

  *****  SOME NATIONAL WEATHER *****

CITY           SKY/WX    TMP DP  RH WIND       PRES   REMARKS
LA GUARDIA NY  CLOUDY    38  28  67 NE14G24   29.74F
RALEIGH NC     PTCLDY    32  22  66 CALM      29.81F
ATLANTA GA     PTCLDY    40  21  46 SW6       29.90F
NEW ORLEANS LA CLEAR     45  35  68 SW6       30.11F
OKLAHOMA CITY  PTCLDY    38  17  42 NW18      30.27S
ALBUQUERQUE NM CLOUDY    36  19  50 NE6       30.41S
SALT LAKE CITY PTCLDY    27  23  85 SE7       30.66F WCI  19
LOS ANGELES CA CLEAR     57  33  40 E3        30.12S
BOISE ID       CLEAR     33  30  88 SE6       30.67S
SEATTLE WA     CLEAR     41  38  89 N7        30.50S
$$

*** WEATHER ACROSS MANITOBA...SASKATCHEWAN AND ONTARIO ***
                ***ONTARIO***

CITY           SKY/WX    TMP DP  RH WIND       PRES   REMARKS
GERALDTON      FLURRIES  -2  -8  78 NE9       29.74S WCI -18
THUNDER BAY    FLURRIES   9   1  72 NW12      29.72R WCI  -6
SIOUX LOOKOUT  FLURRIES   1  -4  78 N7        29.83R WCI -11
TORONTO        CLOUDY    36  32  87 E13       29.71F
BIG TROUT LK   CLEAR    -18 -24  76 NE5       30.06S WCI -31
PICKLE LAKE    NOT AVBL
DRYDEN         FLURRIES   5   1  85 NE7       29.82S WCI  -7
KENORA         LGT SNOW   1  -2  85 NW13G25   29.90R DRFTSNOWWCI -16
$$
                *** MANITOBA***

CITY           SKY/WX    TMP DP  RH WIND       PRES   REMARKS
BRANDON        MOCLDY    12   9  85 NW13      30.17R WCI  -3
DAUPHIN        FLURRIES  16  10  79 N10       30.22R WCI   3
ISLAND LAKE    NOT AVBL
PILOT MOUND      N/A     14  10  85 N17         N/A  WCI  -3
THE PAS        FLURRIES  10   5  79 NW10      30.27R WCI  -3
THOMPSON       FLURRIES   1  -4  78 NW6       30.17S WCI -10
WINNIPEG       LGT SNOW   9   3  78 N30G37    30.13R VSB 1   WCI -14
LYNN LAKE      CLOUDY    -2  -8  78 NW12G21   30.22S WCI -20
CHURCHILL      LGT SNOW  -8 -13  77 W6        30.18S WCI -21
GILLAM         LGT SNOW  -6 -11  77 NW6       30.16R WCI -18
$$
                ***SASKATCHEWAN***

CITY           SKY/WX    TMP DP  RH WIND       PRES   REMARKS
ESTEVAN        NOT AVBL
KINDERSLEY     MOCLDY    19  12  73 W5        30.35F WCI  13
LLOYDMINSTER   CLOUDY    21  16  79 W9        30.31F WCI  11
PRINCE ALBERT  PTCLDY    12   9  85 W8        30.33R WCI   1
REGINA         CLEAR     18  16  93 NW10      30.33R WCI   6
YORKTON        CLEAR     16  10  79 NW20      30.24R WCC1F1C2F2C3F3C4F4C5F5C6F6C7F7C8F8C9F9CaFaCbFbCcFcCdFdCe!



USA.gov is the U.S. government's official web portal to all federal, state and local government web resources and services.